This demonstration page uses our WeatherBlox Daily Observations layout. Learn more.

Left ArrowRight Arrow

Hourly Observations for June 16, 2019

Temp ( °F °C ) Dew Point ( °F °C ) Humidity (%) Winds ( mph kmh ) Pressure ( in mb ) Visibility ( mi km ) Precip ( " mm )
12:12 am 00:12 Cloudy with Light Rain 69 20.6 68 20 96 96 SW 3 6 29.83 1010 2 3 0.05 1.27
12:32 am 00:32 Cloudy with Light Rain 69 20.6 68 20 96 96 N N/A 29.84 1011 7 11 0.09 2.29
12:44 am 00:44 Cloudy with Light Rain 69 20.6 68 20 96 96 VRB 3 6 29.84 1011 7 11 0.09 2.29
12:53 am 00:53 Cloudy with Light Rain 69 20.6 68 20 96 96 WSW 3 6 29.85 1011 7 11 0.10 2.54
1:04 am 01:04 Cloudy with Light Rain 69 20.6 68 20 96 96 N N/A 29.84 1011 7 11 N/A
1:12 am 01:12 Cloudy with Light Rain 69 20.6 68 20 96 96 SW 5 7 29.84 1011 2 3 0.08 2.03
1:15 am 01:15 Cloudy with Heavy Rain 69 20.6 68 20 96 96 VRB 3 6 29.84 1011 1 1 0.16 4.06
1:26 am 01:26 Cloudy with Rain 69 20.6 69 20.6 100 100 WSW 7 11 29.84 1011 2 3 0.23 5.84
1:32 am 01:32 Cloudy with Heavy Rain 69 20.6 69 20.6 100 100 SSW 3 6 29.84 1011 2 3 0.26 6.60
1:41 am 01:41 Mostly Cloudy with Nearby Thunderstorms 69 20.6 69 20.6 100 100 SSW 3 6 29.84 1011 3 5 0.28 7.11
1:53 am 01:53 Mostly Cloudy with Nearby Thunderstorms 69 20.6 68 20 96 96 N N/A 29.85 1011 5 8 0.29 7.37
2:08 am 02:08 Mostly Cloudy with Heavy Thunderstorms 69 20.6 68 20 96 96 N N/A 29.83 1010 3 4 0.05 1.27
2:24 am 02:24 Cloudy with Light Rain 69 20.6 68 20 96 96 N N/A 29.82 1010 5 8 0.08 2.03
2:53 am 02:53 Cloudy with Nearby Thunderstorms 69 20.6 68 20 96 96 S 3 6 29.82 1010 6 10 0.12 3.05
3:19 am 03:19 Cloudy with Nearby Thunderstorms 69 20.6 68 20 96 96 N N/A 29.82 1010 6 10 0.03 0.76
3:40 am 03:40 Cloudy 69 20.6 68 20 96 96 N N/A 29.81 1010 9 14 0.03 0.76
3:53 am 03:53 Cloudy 69 20.6 68 20 96 96 N N/A 29.82 1010 9 14 0.03 0.76
4:14 am 04:14 Mostly Cloudy 70 21 N/A N/A N N/A 29.81 1010 9 14 N/A
4:53 am 04:53 Cloudy with Haze 70 21 N/A N/A N N/A 29.80 1009 5 8 N/A
5:53 am 05:53 Mostly Clear with Light Rain 70 21 N/A N/A S 3 6 29.82 1010 7 11 N/A
6:20 am 06:20 Mostly Cloudy with Nearby Thunderstorms 70 21 N/A N/A SSW 7 11 29.81 1010 4 6 0.04 1.02
6:53 am 06:53 Cloudy with Heavy Rain 68 20 N/A N/A SW 10 17 29.85 1011 3 4 0.15 3.81
7:17 am 07:17 Cloudy with Rain 66 19 N/A N/A WSW 9 15 29.86 1011 4 6 0.07 1.78
7:53 am 07:53 Mostly Cloudy with Light Rain 66 19 N/A N/A SSW 5 7 29.85 1011 7 11 0.11 2.79
8:53 am 08:53 Partly Cloudy with Light Rain 66 19 N/A N/A SW 9 15 29.86 1011 10 16 0.01 0.25
9:41 am 09:41 Mostly Cloudy 70 21.1 68 20 93 93 WSW 7 11 29.87 1012 10 16 N/A
9:53 am 09:53 Mostly Cloudy 71 21.7 69 20.6 94 94 SW 7 11 29.89 1012 10 16 N/A
10:18 am 10:18 Partly Cloudy 72 22.2 70 21.1 94 94 SW 9 15 29.88 1012 10 16 N/A
10:53 am 10:53 Mostly Cloudy 70 21.1 68 20 93 93 SW 8 13 29.91 1013 10 16 N/A
11:53 am 11:53 Sunny 71 21.7 69 20.6 94 94 VRB 5 7 29.91 1013 10 16 N/A
12:53 pm 12:53 Mostly Sunny 70 21.1 68 20 93 93 VRB 6 9 29.90 1013 10 16 N/A
1:53 pm 13:53 Mostly Sunny 76 24.4 69 20.6 79 79 SW 10 17 29.89 1012 10 16 N/A
2:53 pm 14:53 Mostly Cloudy 78 25.6 70 21.1 76 76 W 10 17 29.88 1012 10 16 N/A
3:53 pm 15:53 Mostly Cloudy 81 27.2 71 21.7 72 72 WSW 9 15 29.88 1012 10 16 N/A
4:04 pm 16:04 Mostly Cloudy 79 26.1 71 21.7 77 77 VRB 7 11 29.86 1011 10 16 N/A
4:32 pm 16:32 Cloudy 80 26.7 72 22.2 76 76 VRB 5 7 29.84 1011 10 16 N/A
4:49 pm 16:49 Mostly Cloudy 81 27 72 22 74 74 VRB 7 11 29.84 1011 10 16 N/A
4:53 pm 16:53 Mostly Cloudy 79 26.1 71 21.7 77 77 WSW 7 11 29.86 1011 10 16 N/A
5:18 pm 17:18 Cloudy 81 27.2 73 22.8 77 77 WSW 8 13 29.85 1011 10 16 N/A
5:53 pm 17:53 Cloudy 79 26.1 73 22.8 82 82 WSW 7 11 29.87 1012 10 16 N/A
6:29 pm 18:29 Mostly Cloudy with Nearby Thunderstorms 78 25.6 73 22.8 85 85 VRB 3 6 29.81 1010 8 13 N/A
6:44 pm 18:44 Mostly Sunny 77 25 73 22.8 88 88 S 3 6 29.80 1009 10 16 N/A
6:53 pm 18:53 Sunny 77 25 73 22.8 88 88 N N/A 29.81 1010 10 16 N/A
7:53 pm 19:53 Sunny 77 25 72 22.2 85 85 N N/A 29.82 1010 10 16 N/A
8:53 pm 20:53 Sunny with Light Rain 75 23.9 72 22.2 90 90 SW 3 6 29.85 1011 10 16 N/A
9:53 pm 21:53 Mostly Cloudy with Light Rain 74 23.3 72 22.2 94 94 SSW 7 11 29.87 1012 10 16 N/A
10:53 pm 22:53 Mostly Cloudy with Light Rain 72 22.2 68 20 87 87 VRB 3 6 29.91 1013 10 16 N/A
11:53 pm 23:53 Mostly Clear with Light Rain 69 20.6 68 20 96 96 S 3 6 29.93 1014 7 11 0.07 1.78

Powered by AerisWeather